Location: Sweet Grass
(48.9965°N, 111.9649°W)
Time: 07:52:51
(UTC+00:00)

EO-79 - Pass Details

Date: 05 April 2023
Orbit: 578 x 593 km, 98.0° (Epoch: 02 June)

Event Time Altitude Azimuth Distance (km) Brightness Sun altitude
Rises 09:31:41 0° 16° (NNE) 2,827 ? -29.0°
Reaches altitude 10° 09:33:54 10° 20° (NNE) 1,919 ? -28.7°
Enters shadow 09:36:52 42° 43° (NE) 838 ? -28.5°
